Voltar ao catálogo

COSMOS 1386

AtivoMilitarPO
NORAD 13353·PAYLOAD·🇷🇺 Russia

Lançado Jul 7, 1982 de Plesetsk Cosmodrome

Loading…

Próximas Passagens (próximas 24 horas)

TLE

AtualizadoSource: Space-Track

Época: Sep 14, 2026, 19:47 UTC

1 13353U 82069A   26257.82490917  .00000051  00000-0  36523-4 0  9991
2 13353  82.9633  39.2449 0038911 173.1690 187.0006 13.76634251219314

Acompanhe COSMOS 1386 em tempo real com AllMySat

Download on the App Store